Time,TemperatureF,DewpointF,PressureIn,WindDirection,WindDirectionDegrees,WindSpeedMPH,WindSpeedGustMPH,Humidity,HourlyPrecipIn,Conditions,Clouds,dailyrainin,SoftwareType,DateUTC
2013-02-01 00:00:00,24.0,-99.9,29.71,WSW,240,18.0,26.0,-999,-99.99,,,-99.99,,2013-02-01 05:00:00,
2013-02-01 00:23:00,24.0,-99.9,29.71,WSW,240,18.0,26.0,-999,-99.99,,,-99.99,,2013-02-01 05:23:00,
2013-02-01 00:32:00,24.0,-99.9,29.71,WSW,240,18.0,26.0,-999,-99.99,,,-99.99,,2013-02-01 05:32:00,
2013-02-01 00:42:00,24.0,-99.9,29.71,WSW,240,18.0,26.0,-999,-99.99,,,-99.99,,2013-02-01 05:42:00,
2013-02-01 00:52:00,24.0,-99.9,29.71,WSW,240,18.0,26.0,-999,-99.99,,,-99.99,,2013-02-01 05:52:00,
2013-02-01 01:00:00,23.0,-99.9,29.73,West,260,21.0,32.0,-999,-99.99,,,-99.99,,2013-02-01 06:00:00,
2013-02-01 01:22:00,23.0,-99.9,29.73,West,260,21.0,32.0,-999,-99.99,,,-99.99,,2013-02-01 06:22:00,
2013-02-01 01:32:00,23.0,-99.9,29.73,West,260,21.0,32.0,-999,-99.99,,,-99.99,,2013-02-01 06:32:00,
2013-02-01 01:42:00,23.0,-99.9,29.73,West,260,21.0,32.0,-999,-99.99,,,-99.99,,2013-02-01 06:42:00,
2013-02-01 01:52:00,23.0,-99.9,29.73,West,260,21.0,32.0,-999,-99.99,,,-99.99,,2013-02-01 06:52:00,
2013-02-01 02:00:00,23.0,-99.9,29.74,WSW,240,20.0,28.0,-999,-99.99,,,-99.99,,2013-02-01 07:00:00,
2013-02-01 02:22:00,23.0,-99.9,29.74,WSW,240,20.0,28.0,-999,-99.99,,,-99.99,,2013-02-01 07:22:00,
2013-02-01 02:32:00,23.0,-99.9,29.74,WSW,240,20.0,28.0,-999,-99.99,,,-99.99,,2013-02-01 07:32:00,
2013-02-01 02:42:00,23.0,-99.9,29.74,WSW,240,20.0,28.0,-999,-99.99,,,-99.99,,2013-02-01 07:42:00,
2013-02-01 02:52:00,23.0,-99.9,29.74,WSW,240,20.0,28.0,-999,-99.99,,,-99.99,,2013-02-01 07:52:00,
2013-02-01 03:00:00,23.0,-99.9,29.75,WSW,250,21.0,29.0,-999,-99.99,,,-99.99,,2013-02-01 08:00:00,
2013-02-01 03:22:00,23.0,-99.9,29.75,WSW,250,21.0,29.0,-999,-99.99,,,-99.99,,2013-02-01 08:22:00,
2013-02-01 03:32:00,23.0,-99.9,29.75,WSW,250,21.0,29.0,-999,-99.99,,,-99.99,,2013-02-01 08:32:00,
2013-02-01 03:42:00,23.0,-99.9,29.75,WSW,250,21.0,29.0,-999,-99.99,,,-99.99,,2013-02-01 08:42:00,
2013-02-01 03:52:00,23.0,-99.9,29.75,WSW,250,21.0,29.0,-999,-99.99,,,-99.99,,2013-02-01 08:52:00,
2013-02-01 04:00:00,22.0,-99.9,29.76,WSW,250,15.0,26.0,-999,-99.99,,,-99.99,,2013-02-01 09:00:00,
2013-02-01 04:22:00,22.0,-99.9,29.76,WSW,250,15.0,26.0,-999,-99.99,,,-99.99,,2013-02-01 09:22:00,
2013-02-01 04:32:00,22.0,-99.9,29.76,WSW,250,15.0,26.0,-999,-99.99,,,-99.99,,2013-02-01 09:32:00,
2013-02-01 04:42:00,22.0,-99.9,29.76,WSW,250,15.0,26.0,-999,-99.99,,,-99.99,,2013-02-01 09:42:00,
2013-02-01 04:52:00,22.0,-99.9,29.76,WSW,250,15.0,26.0,-999,-99.99,,,-99.99,,2013-02-01 09:52:00,
2013-02-01 05:00:00,23.0,-99.9,29.78,WNW,290,22.0,28.0,-999,-99.99,,,-99.99,,2013-02-01 10:00:00,
2013-02-01 05:21:00,23.0,-99.9,29.78,WNW,290,22.0,28.0,-999,-99.99,,,-99.99,,2013-02-01 10:21:00,
2013-02-01 05:32:00,23.0,-99.9,29.78,WNW,290,22.0,28.0,-999,-99.99,,,-99.99,,2013-02-01 10:32:00,
2013-02-01 05:43:00,23.0,-99.9,29.78,WNW,290,22.0,28.0,-999,-99.99,,,-99.99,,2013-02-01 10:43:00,
2013-02-01 05:53:00,23.0,-99.9,29.78,WNW,290,22.0,28.0,-999,-99.99,,,-99.99,,2013-02-01 10:53:00,
2013-02-01 06:00:00,23.0,-99.9,29.82,West,280,23.0,28.0,-999,-99.99,,,-99.99,,2013-02-01 11:00:00,
2013-02-01 06:22:00,23.0,-99.9,29.82,West,280,23.0,28.0,-999,-99.99,,,-99.99,,2013-02-01 11:22:00,
2013-02-01 06:32:00,23.0,-99.9,29.82,West,280,23.0,28.0,-999,-99.99,,,-99.99,,2013-02-01 11:32:00,
2013-02-01 06:42:00,23.0,-99.9,29.82,West,280,23.0,28.0,-999,-99.99,,,-99.99,,2013-02-01 11:42:00,
2013-02-01 06:53:00,23.0,-99.9,29.82,West,280,23.0,28.0,-999,-99.99,,,-99.99,,2013-02-01 11:53:00,
2013-02-01 07:00:00,22.0,-99.9,29.86,West,280,25.0,31.0,-999,-99.99,,,-99.99,,2013-02-01 12:00:00,
2013-02-01 07:23:00,22.0,-99.9,29.86,West,280,25.0,31.0,-999,-99.99,,,-99.99,,2013-02-01 12:23:00,
2013-02-01 07:32:00,22.0,-99.9,29.86,West,280,25.0,31.0,-999,-99.99,,,-99.99,,2013-02-01 12:32:00,
2013-02-01 07:42:00,22.0,-99.9,29.86,West,280,25.0,31.0,-999,-99.99,,,-99.99,,2013-02-01 12:42:00,
2013-02-01 07:52:00,22.0,-99.9,29.86,West,280,25.0,31.0,-999,-99.99,,,-99.99,,2013-02-01 12:52:00,
2013-02-01 08:00:00,23.0,-99.9,29.91,WNW,290,24.0,33.0,-999,-99.99,,,-99.99,,2013-02-01 13:00:00,
2013-02-01 08:22:00,23.0,-99.9,29.91,WNW,290,24.0,33.0,-999,-99.99,,,-99.99,,2013-02-01 13:22:00,
2013-02-01 08:33:00,23.0,-99.9,29.91,WNW,290,24.0,33.0,-999,-99.99,,,-99.99,,2013-02-01 13:33:00,
2013-02-01 08:43:00,23.0,-99.9,29.91,WNW,290,24.0,33.0,-999,-99.99,,,-99.99,,2013-02-01 13:43:00,
2013-02-01 08:53:00,23.0,-99.9,29.91,WNW,290,24.0,33.0,-999,-99.99,,,-99.99,,2013-02-01 13:53:00,
2013-02-01 09:00:00,21.0,-99.9,29.95,WNW,290,18.0,26.0,-999,-99.99,,,-99.99,,2013-02-01 14:00:00,
2013-02-01 09:22:00,21.0,-99.9,29.95,WNW,290,18.0,26.0,-999,-99.99,,,-99.99,,2013-02-01 14:22:00,
2013-02-01 09:33:00,21.0,-99.9,29.95,WNW,290,18.0,26.0,-999,-99.99,,,-99.99,,2013-02-01 14:33:00,
2013-02-01 09:43:00,21.0,-99.9,29.95,WNW,290,18.0,26.0,-999,-99.99,,,-99.99,,2013-02-01 14:43:00,
2013-02-01 09:53:00,21.0,-99.9,29.95,WNW,290,18.0,26.0,-999,-99.99,,,-99.99,,2013-02-01 14:53:00,
2013-02-01 10:00:00,21.0,-99.9,29.98,WNW,290,24.0,30.0,-999,-99.99,,,-99.99,,2013-02-01 15:00:00,
2013-02-01 10:22:00,21.0,-99.9,29.98,WNW,290,24.0,30.0,-999,-99.99,,,-99.99,,2013-02-01 15:22:00,
2013-02-01 10:33:00,21.0,-99.9,29.98,WNW,290,24.0,30.0,-999,-99.99,,,-99.99,,2013-02-01 15:33:00,
2013-02-01 10:42:00,21.0,-99.9,29.98,WNW,290,24.0,30.0,-999,-99.99,,,-99.99,,2013-02-01 15:42:00,
2013-02-01 10:52:00,21.0,-99.9,29.98,WNW,290,24.0,30.0,-999,-99.99,,,-99.99,,2013-02-01 15:52:00,
2013-02-01 11:00:00,21.0,-99.9,30.01,West,280,18.0,26.0,-999,-99.99,,,-99.99,,2013-02-01 16:00:00,
2013-02-01 11:22:00,21.0,-99.9,30.01,West,280,18.0,26.0,-999,-99.99,,,-99.99,,2013-02-01 16:22:00,
2013-02-01 11:33:00,21.0,-99.9,30.01,West,280,18.0,26.0,-999,-99.99,,,-99.99,,2013-02-01 16:33:00,
2013-02-01 11:43:00,21.0,-99.9,30.01,West,280,18.0,26.0,-999,-99.99,,,-99.99,,2013-02-01 16:43:00,
2013-02-01 11:53:00,21.0,-99.9,30.01,West,280,18.0,26.0,-999,-99.99,,,-99.99,,2013-02-01 16:53:00,
2013-02-01 12:00:00,21.0,-99.9,30.02,West,280,22.0,28.0,-999,-99.99,,,-99.99,,2013-02-01 17:00:00,
2013-02-01 12:22:00,21.0,-99.9,30.02,West,280,22.0,28.0,-999,-99.99,,,-99.99,,2013-02-01 17:22:00,
2013-02-01 12:32:00,21.0,-99.9,30.02,West,280,22.0,28.0,-999,-99.99,,,-99.99,,2013-02-01 17:32:00,
2013-02-01 12:42:00,21.0,-99.9,30.02,West,280,22.0,28.0,-999,-99.99,,,-99.99,,2013-02-01 17:42:00,
2013-02-01 12:53:00,21.0,-99.9,30.02,West,280,22.0,28.0,-999,-99.99,,,-99.99,,2013-02-01 17:53:00,
2013-02-01 13:00:00,22.0,-99.9,30.03,WNW,300,23.0,28.0,-999,-99.99,,,-99.99,,2013-02-01 18:00:00,
2013-02-01 13:23:00,22.0,-99.9,30.03,WNW,300,23.0,28.0,-999,-99.99,,,-99.99,,2013-02-01 18:23:00,
2013-02-01 13:33:00,22.0,-99.9,30.03,WNW,300,23.0,28.0,-999,-99.99,,,-99.99,,2013-02-01 18:33:00,
2013-02-01 13:42:00,22.0,-99.9,30.03,WNW,300,23.0,28.0,-999,-99.99,,,-99.99,,2013-02-01 18:42:00,
2013-02-01 13:53:00,22.0,-99.9,30.03,WNW,300,23.0,28.0,-999,-99.99,,,-99.99,,2013-02-01 18:53:00,
2013-02-01 14:00:00,21.0,-99.9,30.05,NW,310,17.0,25.0,-999,-99.99,,,-99.99,,2013-02-01 19:00:00,
2013-02-01 14:22:00,21.0,-99.9,30.05,NW,310,17.0,25.0,-999,-99.99,,,-99.99,,2013-02-01 19:22:00,
2013-02-01 14:33:00,21.0,-99.9,30.05,NW,310,17.0,25.0,-999,-99.99,,,-99.99,,2013-02-01 19:33:00,
2013-02-01 14:42:00,21.0,-99.9,30.05,NW,310,17.0,25.0,-999,-99.99,,,-99.99,,2013-02-01 19:42:00,
2013-02-01 14:52:00,21.0,-99.9,30.05,NW,310,17.0,25.0,-999,-99.99,,,-99.99,,2013-02-01 19:52:00,
2013-02-01 15:00:00,23.0,-99.9,30.06,WNW,290,23.0,30.0,-999,-99.99,,,-99.99,,2013-02-01 20:00:00,
2013-02-01 15:22:00,23.0,-99.9,30.06,WNW,290,23.0,30.0,-999,-99.99,,,-99.99,,2013-02-01 20:22:00,
2013-02-01 15:32:00,23.0,-99.9,30.06,WNW,290,23.0,30.0,-999,-99.99,,,-99.99,,2013-02-01 20:32:00,
2013-02-01 15:42:00,23.0,-99.9,30.06,WNW,290,23.0,30.0,-999,-99.99,,,-99.99,,2013-02-01 20:42:00,
2013-02-01 15:52:00,23.0,-99.9,30.06,WNW,290,23.0,30.0,-999,-99.99,,,-99.99,,2013-02-01 20:52:00,
2013-02-01 16:00:00,23.0,-99.9,30.08,WNW,290,28.0,32.0,-999,-99.99,,,-99.99,,2013-02-01 21:00:00,
2013-02-01 16:22:00,23.0,-99.9,30.08,WNW,290,28.0,32.0,-999,-99.99,,,-99.99,,2013-02-01 21:22:00,
2013-02-01 16:32:00,23.0,-99.9,30.08,WNW,290,28.0,32.0,-999,-99.99,,,-99.99,,2013-02-01 21:32:00,
2013-02-01 16:42:00,23.0,-99.9,30.08,WNW,290,28.0,32.0,-999,-99.99,,,-99.99,,2013-02-01 21:42:00,
2013-02-01 16:53:00,23.0,-99.9,30.08,WNW,290,28.0,32.0,-999,-99.99,,,-99.99,,2013-02-01 21:53:00,
2013-02-01 17:00:00,23.0,-99.9,30.09,West,280,23.0,29.0,-999,-99.99,,,-99.99,,2013-02-01 22:00:00,
2013-02-01 17:22:00,23.0,-99.9,30.09,West,280,23.0,29.0,-999,-99.99,,,-99.99,,2013-02-01 22:22:00,
2013-02-01 17:32:00,23.0,-99.9,30.09,West,280,23.0,29.0,-999,-99.99,,,-99.99,,2013-02-01 22:32:00,
2013-02-01 17:42:00,23.0,-99.9,30.09,West,280,23.0,29.0,-999,-99.99,,,-99.99,,2013-02-01 22:42:00,
2013-02-01 17:52:00,23.0,-99.9,30.09,West,280,23.0,29.0,-999,-99.99,,,-99.99,,2013-02-01 22:52:00,
2013-02-01 18:00:00,23.0,-99.9,30.12,West,260,16.0,29.0,-999,-99.99,,,-99.99,,2013-02-01 23:00:00,
2013-02-01 18:22:00,23.0,-99.9,30.12,West,260,16.0,29.0,-999,-99.99,,,-99.99,,2013-02-01 23:22:00,
2013-02-01 18:32:00,23.0,-99.9,30.12,West,260,16.0,29.0,-999,-99.99,,,-99.99,,2013-02-01 23:32:00,
2013-02-01 18:42:00,23.0,-99.9,30.12,West,260,16.0,29.0,-999,-99.99,,,-99.99,,2013-02-01 23:42:00,
2013-02-01 18:52:00,23.0,-99.9,30.12,West,260,16.0,29.0,-999,-99.99,,,-99.99,,2013-02-01 23:52:00,
2013-02-01 19:00:00,23.0,-99.9,30.14,West,270,17.0,32.0,-999,-99.99,,,-99.99,,2013-02-02 00:00:00,
2013-02-01 19:22:00,23.0,-99.9,30.14,West,270,17.0,32.0,-999,-99.99,,,-99.99,,2013-02-02 00:22:00,
2013-02-01 19:32:00,23.0,-99.9,30.14,West,270,17.0,32.0,-999,-99.99,,,-99.99,,2013-02-02 00:32:00,
2013-02-01 19:42:00,23.0,-99.9,30.14,West,270,17.0,32.0,-999,-99.99,,,-99.99,,2013-02-02 00:42:00,
2013-02-01 19:52:00,23.0,-99.9,30.14,West,270,17.0,32.0,-999,-99.99,,,-99.99,,2013-02-02 00:52:00,
2013-02-01 20:00:00,21.0,-99.9,30.15,WSW,240,11.0,20.0,-999,-99.99,,,-99.99,,2013-02-02 01:00:00,
2013-02-01 20:22:00,21.0,-99.9,30.15,WSW,240,11.0,20.0,-999,-99.99,,,-99.99,,2013-02-02 01:22:00,
2013-02-01 20:32:00,21.0,-99.9,30.15,WSW,240,11.0,20.0,-999,-99.99,,,-99.99,,2013-02-02 01:32:00,
2013-02-01 20:42:00,21.0,-99.9,30.15,WSW,240,11.0,20.0,-999,-99.99,,,-99.99,,2013-02-02 01:42:00,
2013-02-01 20:52:00,21.0,-99.9,30.15,WSW,240,11.0,20.0,-999,-99.99,,,-99.99,,2013-02-02 01:52:00,
2013-02-01 21:00:00,20.0,-99.9,30.17,SW,230,13.0,17.0,-999,-99.99,,,-99.99,,2013-02-02 02:00:00,
2013-02-01 21:22:00,20.0,-99.9,30.17,SW,230,13.0,17.0,-999,-99.99,,,-99.99,,2013-02-02 02:22:00,
2013-02-01 21:32:00,20.0,-99.9,30.17,SW,230,13.0,17.0,-999,-99.99,,,-99.99,,2013-02-02 02:32:00,
2013-02-01 21:42:00,20.0,-99.9,30.17,SW,230,13.0,17.0,-999,-99.99,,,-99.99,,2013-02-02 02:42:00,
2013-02-01 21:52:00,20.0,-99.9,30.17,SW,230,13.0,17.0,-999,-99.99,,,-99.99,,2013-02-02 02:52:00,
2013-02-01 22:00:00,19.0,-99.9,30.18,SW,220,8.0,14.0,-999,-99.99,,,-99.99,,2013-02-02 03:00:00,
2013-02-01 22:22:00,19.0,-99.9,30.18,SW,220,8.0,14.0,-999,-99.99,,,-99.99,,2013-02-02 03:22:00,
2013-02-01 22:32:00,19.0,-99.9,30.18,SW,220,8.0,14.0,-999,-99.99,,,-99.99,,2013-02-02 03:32:00,
2013-02-01 22:42:00,19.0,-99.9,30.18,SW,220,8.0,14.0,-999,-99.99,,,-99.99,,2013-02-02 03:42:00,
2013-02-01 22:52:00,19.0,-99.9,30.18,SW,220,8.0,14.0,-999,-99.99,,,-99.99,,2013-02-02 03:52:00,
2013-02-01 23:00:00,22.0,-99.9,30.16,WSW,250,18.0,26.0,-999,-99.99,,,-99.99,,2013-02-02 04:00:00,
2013-02-01 23:22:00,22.0,-99.9,30.16,WSW,250,18.0,26.0,-999,-99.99,,,-99.99,,2013-02-02 04:22:00,
2013-02-01 23:33:00,22.0,-99.9,30.16,WSW,250,18.0,26.0,-999,-99.99,,,-99.99,,2013-02-02 04:33:00,
2013-02-01 23:42:00,22.0,-99.9,30.16,WSW,250,18.0,26.0,-999,-99.99,,,-99.99,,2013-02-02 04:42:00,
2013-02-01 23:52:00,22.0,-99.9,30.16,WSW,250,18.0,26.0,-999,-99.99,,,-99.99,,2013-02-02 04:52:00,